Houghton, MI

7:36 PM EDT on May 29, 2017 (GMT -0400)
Houghton County Memorial

Weather History for KCMX - March, 2014

Change the Weather History Date:

Sunday, March 30, 2014

  Actual Average Record
Temperature  
Mean Temperature 34 °F -  
Max Temperature 50 °F 37 °F 57 °F (1967)
Min Temperature 21 °F 24 °F 1 °F (1954)
Degree Days  
Heating Degree Days 30    
Moisture  
Dew Point 21 °F    
Average Humidity 58    
Maximum Humidity 69    
Minimum Humidity 43    
Precipitation  
Precipitation 0.00 in - - ()
Sea Level Pressure  
Sea Level Pressure 30.02 in    
Wind  
Wind Speed 9 mph (SE)    
Max Wind Speed 20 mph    
Max Gust Speed 26 mph    
Visibility 10 miles    
Events      
Averages and records for this station are not official NWS values.
T = Trace of Precipitation, MM = Missing Value Source: NWS Daily Summary

Daily Weather History Graph

Daily Weather History Graph

Search for Another Location

Airport or City:

Trip Planner

Search our weather history database for the weather conditions in past years. The results will help you decide how hot, cold, wet, or windy it might be!

Date:

Astronomy

Mar. 30, 2014 Rise Set
Actual Time 7:36 AM EDT 8:20 PM EDT
Civil Twilight 7:06 AM EDT 8:51 PM EDT
Nautical Twilight 6:29 AM EDT 9:28 PM EDT
Astronomical Twilight 5:51 AM EDT 10:06 PM EDT
Moon 7:22 AM EDT (3/30) 8:35 PM EDT (3/30)
Length of Visible Light 13h 45m
Length of Day
12h 43m
Waning Crescent, 0% of the Moon is Illuminated
Mar 30
Waning Crescent
Mar 30
New
Apr 7
First Quarter
Apr 15
Full
Apr 22
Last Quarter

Hourly Weather History & Observations

Time (EDT) Temp. Windchill Dew Point Humidity Pressure Visibility Wind Dir Wind Speed Gust Speed Precip Events Conditions
12:53 AM 21.9 °F 13.4 °F 10.0 °F 60% 30.19 in 10.0 mi East 6.9 mph - N/A   Clear
1:53 AM 21.0 °F 11.4 °F 10.9 °F 65% 30.18 in 10.0 mi ENE 8.1 mph - N/A   Clear
2:53 AM 21.9 °F 12.5 °F 12.0 °F 66% 30.15 in 10.0 mi SE 8.1 mph - N/A   Clear
3:53 AM 25.0 °F 17.1 °F 14.0 °F 63% 30.15 in 10.0 mi South 6.9 mph - N/A   Clear
4:53 AM 26.1 °F 18.4 °F 14.0 °F 60% 30.13 in 10.0 mi SSE 6.9 mph - N/A   Clear
5:53 AM 24.1 °F 14.4 °F 14.0 °F 65% 30.11 in 10.0 mi SE 9.2 mph - N/A   Mostly Cloudy
6:53 AM 26.1 °F 17.6 °F 16.0 °F 66% 30.09 in 10.0 mi ESE 8.1 mph - N/A   Clear
7:53 AM 25.0 °F 15.5 °F 16.0 °F 69% 30.07 in 10.0 mi ESE 9.2 mph - N/A   Clear
8:53 AM 27.0 °F 19.5 °F 16.0 °F 63% 30.06 in 10.0 mi ESE 6.9 mph - N/A   Scattered Clouds
9:53 AM 28.9 °F 19.8 °F 18.0 °F 64% 30.01 in 10.0 mi SE 10.4 mph - N/A   Clear
10:53 AM 37.0 °F 26.7 °F 23.0 °F 57% 29.98 in 10.0 mi South 19.6 mph 26.5 mph N/A   Scattered Clouds
11:53 AM 39.9 °F 30.8 °F 24.1 °F 53% 29.95 in 10.0 mi South 18.4 mph - N/A   Clear
12:53 PM 43.0 °F 34.8 °F 25.0 °F 49% 29.96 in 10.0 mi South 18.4 mph 25.3 mph N/A   Clear
1:53 PM 44.1 °F 37.7 °F 26.1 °F 49% 29.95 in 10.0 mi South 12.7 mph 20.7 mph N/A   Clear
2:53 PM 45.0 °F 41.8 °F 26.1 °F 48% 29.94 in 10.0 mi SSE 5.8 mph - N/A   Clear
3:53 PM 48.9 °F - 27.0 °F 43% 29.92 in 10.0 mi WSW 9.2 mph 17.3 mph N/A   Clear
4:53 PM 45.0 °F 40.6 °F 28.9 °F 53% 29.93 in 10.0 mi NW 8.1 mph - N/A   Clear
5:53 PM 44.1 °F 37.7 °F 28.0 °F 53% 29.95 in 10.0 mi NW 12.7 mph - N/A   Clear
6:53 PM 43.0 °F 39.5 °F 28.9 °F 58% 29.95 in 10.0 mi NW 5.8 mph - N/A   Clear
7:53 PM 44.1 °F - 28.0 °F 53% 29.96 in 10.0 mi Calm Calm - N/A   Clear
8:53 PM 37.9 °F 34.4 °F 27.0 °F 65% 29.98 in 10.0 mi East 4.6 mph - N/A   Clear
9:53 PM 39.0 °F 34.8 °F 26.1 °F 60% 29.99 in 10.0 mi NE 5.8 mph - N/A   Clear
10:53 PM 39.0 °F 34.0 °F 26.1 °F 60% 29.99 in 10.0 mi ENE 6.9 mph - N/A   Clear
11:53 PM 39.9 °F 33.9 °F 27.0 °F 60% 30.00 in 10.0 mi NE 9.2 mph - N/A   Partly Cloudy